Nathaniel B. Palmer — WBP3210 — position and weather

sailwx.info

Track history (hours):
 
Tides and Currents Weather Stations Pressure Air Temp Water Temp Dewpoint Dewpoint Depression Visibility Wind Speed Wind Dir Waves Ship Positions

Oceanographic research ship Nathaniel B. Palmer (USA)

Contact: Ethan Norris, ethan.norris.contractor@usap.gov

Detailed information on ship capabilities available from University of Delaware's Ocean Information Center and ARCUS's ALIAS (Arctic Logistics Information and Support) project.

Owner: OFFSHORE SERVICE VESSELS, GALLIANO, LA. More information available from US FCC via Universal Licensing System and Coast Guard Vessel Documentation Center.

Last reported at 2017-Nov-13 14:00 UTC. Time now 2017-Nov-18 10:06 UTC.
Position S 53°06' W 070°54'.

Type: Other ship. MMSI: 366610000.

Wind from 070 at 9 knots

Barometer 1006.3 mb
Air temperature 7.8 ° C
Water temperature -0.0 ° C

Date/timePositionNaut miles runAvg speedWind from/ knotsBaromVisibWave heightAir tempDewpointWater temp
2017-Nov-13 14:00S 53°06' W 070°54'0 0.0 070 / 91006.3 7.8 -0.0
2017-Nov-13 13:00S 53°06' W 070°54'0 0.0 100 / 41007.0 8.8 -0.0
2017-Nov-13 12:00S 53°06' W 070°54'0 0.0 260 / 51007.6 8.2 -0.0
2017-Nov-13 11:00S 53°06' W 070°54'0 0.0 290 / 71008.2 7.8 -0.0
2017-Nov-13 10:00S 53°06' W 070°54'0 0.0 280 / 61008.3 6.4 -0.0
2017-Nov-13 09:00S 53°06' W 070°54'0 0.0 260 / 31008.4 6.7 -0.0
2017-Nov-13 08:00S 53°06' W 070°54'0 0.0 220 / 61008.5 7.4 -0.0
2017-Nov-13 07:00S 53°06' W 070°54'0 0.0 220 / 121008.1 7.5 -0.0
2017-Nov-13 06:00S 53°06' W 070°54'0 0.0 260 / 81008.4 7.5 -0.0
2017-Nov-13 05:00S 53°06' W 070°54'0 0.0 220 / 81008.7 7.6 -0.0
2017-Nov-13 04:00S 53°06' W 070°54'0 0.0 180 / 61008.7 7.7 -0.0
2017-Nov-13 03:00S 53°06' W 070°54'0 0.0 210 / 41008.4 8.1 -0.0
2017-Nov-13 02:00S 53°06' W 070°54'0 0.0 260 / 111008.1 8.4 -0.0
2017-Nov-13 01:00S 53°06' W 070°54'0 0.0 250 / 111007.9 9.1 -0.0
2017-Nov-13 00:00S 53°06' W 070°54'0 0.0 260 / 121007.4 10.2 -0.0
2017-Nov-12 23:00S 53°06' W 070°54'0 0.0 260 / 111007.0 10.7 -0.0
2017-Nov-12 22:00S 53°06' W 070°54'0 0.0 250 / 131006.4 10.8 -0.0
2017-Nov-12 21:00S 53°06' W 070°54'0 0.0 260 / 161006.1 11.2 -0.0
2017-Nov-12 20:00S 53°06' W 070°54'0 0.0 260 / 151005.5 11.3 -0.0
2017-Nov-12 19:00S 53°06' W 070°54'0 0.0 260 / 131005.4 10.8 -0.0
2017-Nov-12 18:00S 53°06' W 070°54'0 0.0 050 / 71005.5 8.2 -0.0
2017-Nov-12 17:00S 53°06' W 070°54'0 0.0 090 / 61005.5 7.4 -0.0
2017-Nov-12 16:00S 53°06' W 070°54'0 0.0 100 / 71005.2 7.3 -0.0
2017-Nov-12 15:00S 53°06' W 070°54'0 0.0 230 / 91004.7 8.6 -0.0
2017-Nov-12 14:00S 53°06' W 070°54'0 0.0 250 / 71004.4 8.5 -0.0
2017-Nov-12 13:00S 53°06' W 070°54'0 0.0 160 / 111003.7 7.1 -0.0
2017-Nov-12 12:00S 53°06' W 070°54'0 0.0 210 / 81002.9 8.3 -0.0
2017-Nov-12 11:00S 53°06' W 070°54'0 0.0 220 / 71002.2 6.5 -0.0
2017-Nov-12 10:00S 53°06' W 070°54'0 0.0 220 / 71001.4 5.5 -0.0
2017-Nov-12 09:00S 53°06' W 070°54'0 0.0 240 / 41000.6 5.0 -0.0
2017-Nov-12 08:00S 53°06' W 070°54'0 0.0 240 / 5999.9 5.2 -0.0
2017-Nov-12 07:00S 53°06' W 070°54'0 0.0 230 / 8999.3 5.5 -0.0
2017-Nov-12 06:00S 53°06' W 070°54'0 0.0 220 / 7999.0 5.8 -0.0
2017-Nov-12 05:00S 53°06' W 070°54'0 0.0 220 / 5998.7 6.2 -0.0
2017-Nov-12 04:00S 53°06' W 070°54'0 0.0 220 / 4998.2 6.8 -0.0
2017-Nov-12 03:00S 53°06' W 070°54'0 0.0 220 / 5997.8 7.3 -0.0
2017-Nov-12 02:00S 53°06' W 070°54'0 0.0 190 / 6997.4 8.4 -0.0
2017-Nov-12 01:00S 53°06' W 070°54'0 0.0 220 / 8996.8 8.7 -0.0
2017-Nov-12 00:00S 53°06' W 070°54'0 0.0 220 / 13996.3 9.4 -0.0
2017-Nov-11 23:00S 53°06' W 070°54'0 0.0 230 / 8995.9 10.1 -0.0
2017-Nov-11 22:00S 53°06' W 070°54'0 0.0 080 / 3995.8 8.4 -0.0
2017-Nov-11 21:00S 53°06' W 070°54'0 0.0 100 / 7995.3 8.8 -0.0
2017-Nov-11 20:00S 53°06' W 070°54'0 0.0 200 / 10994.8 10.7 -0.0
2017-Nov-11 19:00S 53°06' W 070°54'0 0.0 050 / 3995.0 8.7 -0.0
2017-Nov-11 18:00S 53°06' W 070°54'0 0.0 140 / 8994.9 9.1 -0.0
2017-Nov-11 17:00S 53°06' W 070°54'0 0.0 060 / 3995.0 9.2 -0.0
2017-Nov-11 16:00S 53°06' W 070°54'0 0.0 340 / 1995.2 9.1 -0.0
2017-Nov-11 15:00S 53°06' W 070°54'0 0.0 020 / 2995.2 8.0 -0.0
2017-Nov-11 14:00S 53°06' W 070°54'0 0.0 080 / 2995.5 7.9 -0.0
2017-Nov-11 13:00S 53°06' W 070°54'0 0.0 170 / 1995.8 8.3 -0.0
2017-Nov-11 12:00S 53°06' W 070°54'0 0.0 010 / 2996.2 7.9 -0.0
2017-Nov-11 11:00S 53°06' W 070°54'0 0.0 020 / 4996.9 7.7 -0.0
2017-Nov-11 10:00S 53°06' W 070°54'0 0.0 997.4 7.9 -0.0
2017-Nov-11 09:00S 53°06' W 070°54'0 0.0 020 / 5998.2 7.7 -0.0
2017-Nov-11 08:00S 53°06' W 070°54'0 0.0 010 / 6999.0 8.0 -0.0
2017-Nov-11 07:00S 53°06' W 070°54'0 0.0 020 / 8999.5 8.1 -0.0
2017-Nov-11 06:00S 53°06' W 070°54'0 0.0 010 / 81000.4 8.6 -0.0
2017-Nov-11 05:00S 53°06' W 070°54'0 0.0 010 / 71001.5 9.0 -0.0
2017-Nov-11 04:00S 53°06' W 070°54'0 0.0 020 / 71002.3 9.8 -0.0
2017-Nov-11 03:00S 53°06' W 070°54'0 0.0 050 / 81002.7 10.1 -0.0
2017-Nov-11 02:00S 53°06' W 070°54'0 0.0 060 / 41003.3 10.6 -0.0
2017-Nov-11 01:00S 53°06' W 070°54'0 0.0 330 / 121002.9 10.9 -0.0
2017-Nov-11 00:00S 53°06' W 070°54'0 0.0 290 / 261002.2 11.5 -0.0
2017-Nov-10 23:00S 53°06' W 070°54'0 0.0 290 / 191003.0 12.3 -0.0
2017-Nov-10 22:00S 53°06' W 070°54'0 0.0 310 / 161003.6 12.9 -0.0
2017-Nov-10 21:00S 53°06' W 070°54'0 0.0 320 / 141004.2 12.7 -0.0
2017-Nov-10 20:00S 53°06' W 070°54'0 0.0 330 / 121005.0 11.7 -0.0
2017-Nov-10 19:00S 53°06' W 070°54'0 0.0 340 / 131005.9 10.6 -0.0
2017-Nov-10 18:00S 53°06' W 070°54'0 0.0 340 / 91006.6 10.4 -0.0
2017-Nov-10 17:00S 53°06' W 070°54'0 0.0 330 / 111007.4 11.0 -0.0
2017-Nov-10 16:00S 53°06' W 070°54'0 0.0 320 / 111008.1 10.8 -0.0
2017-Nov-10 15:00S 53°06' W 070°54'0 0.0 310 / 101008.5 10.8 -0.0
2017-Nov-10 14:00S 53°06' W 070°54'0 0.0 290 / 101008.8 10.2 -0.0
2017-Nov-10 13:00S 53°06' W 070°54'0 0.0 280 / 131009.4 9.2 -0.0
2017-Nov-10 12:00S 53°06' W 070°54'0 0.0 290 / 151009.4 8.9 -0.0
2017-Nov-10 11:00S 53°06' W 070°54'0 0.0 290 / 171009.1 8.5 -0.0
2017-Nov-10 10:00S 53°06' W 070°54'0 0.0 260 / 141008.8 7.9 -0.0
2017-Nov-10 09:00S 53°06' W 070°54'0 0.0 260 / 111008.7 7.5 -0.0
2017-Nov-10 08:00S 53°06' W 070°54'0 0.0 260 / 101008.3 7.5 -0.0
2017-Nov-10 07:00S 53°06' W 070°54'0 0.0 260 / 101007.9 8.4 -0.0
2017-Nov-10 06:00S 53°06' W 070°54'0 0.0 240 / 91007.4 8.7 -0.0
2017-Nov-10 05:00S 53°06' W 070°54'0 0.0 250 / 101006.5 9.2 -0.0
2017-Nov-10 04:00S 53°06' W 070°54'0 0.0 330 / 51006.1 8.2 -0.0
2017-Nov-10 03:00S 53°06' W 070°54'0 0.0 010 / 41006.0 7.6 -0.0
2017-Nov-10 02:00S 53°06' W 070°54'0 0.0 050 / 51005.8 7.5 -0.0
2017-Nov-10 01:00S 53°06' W 070°54'0 0.0 020 / 41005.7 8.0 -0.0
2017-Nov-10 00:00S 53°06' W 070°54'0 0.0 040 / 61005.1 8.4 -0.0
2017-Nov-09 23:00S 53°06' W 070°54'0 0.0 030 / 21005.0 9.1 -0.0
2017-Nov-09 22:00S 53°06' W 070°54'0 0.0 180 / 41004.6 9.5 -0.0
2017-Nov-09 21:00S 53°06' W 070°54'0 0.0 180 / 61005.1 10.2 -0.0
2017-Nov-09 20:00S 53°06' W 070°54'0 0.0 180 / 51005.8 10.1 -0.0
2017-Nov-09 19:00S 53°06' W 070°54'0 0.0 150 / 51006.5 9.8 -0.0
2017-Nov-09 18:00S 53°06' W 070°54'0 0.0 070 / 41007.2 9.1 -0.0
2017-Nov-09 17:00S 53°06' W 070°54'0 0.0 050 / 71007.9 8.7 -0.0
2017-Nov-09 16:00S 53°06' W 070°54'0 0.0 060 / 71008.8 7.8 -0.0
2017-Nov-09 15:00S 53°06' W 070°54'0 0.0 060 / 91009.5 7.4 -0.0
2017-Nov-09 14:00S 53°06' W 070°54'0 0.0 060 / 101010.1 7.3 -0.0
2017-Nov-09 13:00S 53°06' W 070°54'0 0.0 050 / 91010.6 7.1 -0.0
2017-Nov-09 12:00S 53°06' W 070°54'0 0.0 050 / 81010.9 6.9 -0.0
2017-Nov-09 11:00S 53°06' W 070°54'0 0.0 060 / 91011.0 6.9 -0.0
2017-Nov-09 10:00S 53°06' W 070°54'0 0.0 040 / 81011.2 6.6 -0.0
2017-Nov-09 09:00S 53°06' W 070°54'0 0.0 040 / 91011.4 6.5 -0.0
2017-Nov-09 08:00S 53°06' W 070°54'0 0.0 030 / 81011.7 6.5 -0.0
2017-Nov-09 07:00S 53°06' W 070°54'0 0.0 030 / 101011.9 6.8 -0.0
2017-Nov-09 06:00S 53°06' W 070°54'0 0.0 020 / 121012.1 7.4 -0.0
2017-Nov-09 05:00S 53°06' W 070°54'0 0.0 020 / 91012.6 7.9 -0.0
2017-Nov-09 04:00S 53°06' W 070°54'0 0.0 020 / 81012.9 8.4 -0.0
2017-Nov-09 03:00S 53°06' W 070°54'0 0.0 010 / 91013.0 9.1 -0.0
2017-Nov-09 02:00S 53°06' W 070°54'0 0.0 010 / 71013.0 10.0 -0.0
2017-Nov-09 01:00S 53°06' W 070°54'0 0.0 020 / 71012.9 10.9 -0.0
2017-Nov-09 00:00S 53°06' W 070°54'0 0.0 020 / 71012.8 11.7 -0.0
2017-Nov-08 23:00S 53°06' W 070°54'0 0.0 020 / 51012.6 10.7 -0.0
2017-Nov-08 22:00S 53°06' W 070°54'0 0.0 140 / 21012.6 9.3 -0.0
2017-Nov-08 21:00S 53°06' W 070°54'0 0.0 090 / 41012.7 9.9 -0.0
2017-Nov-08 20:00S 53°06' W 070°54'0 0.0 060 / 81012.7 10.8 -0.0
2017-Nov-08 19:00S 53°06' W 070°54'0 0.0 040 / 111012.9 10.7 -0.0
2017-Nov-08 18:00S 53°06' W 070°54'0 0.0 050 / 101013.2 9.2 -0.0
2017-Nov-08 17:00S 53°06' W 070°54'0 0.0 050 / 91013.5 8.0 -0.0
2017-Nov-08 16:00S 53°06' W 070°54'0 0.0 060 / 71013.7 7.8 -0.0
2017-Nov-08 15:00S 53°06' W 070°54'0 0.0 050 / 71014.0 7.2 -0.0
2017-Nov-08 14:00S 53°06' W 070°54'0 0.0 040 / 81014.2 7.1 -0.0
2017-Nov-08 13:00S 53°06' W 070°54'0 0.0 050 / 71014.4 6.9 -0.0
2017-Nov-08 12:00S 53°06' W 070°54'0 0.0 040 / 51014.4 7.1 -0.0
2017-Nov-08 11:00S 53°06' W 070°54'0 0.0 040 / 41014.3 7.0 -0.0
2017-Nov-08 10:00S 53°06' W 070°54'0 0.0 050 / 61014.2 7.0 -0.0
2017-Nov-08 09:00S 53°06' W 070°54'0 0.0 050 / 61014.0 7.1 -0.0
2017-Nov-08 08:00S 53°06' W 070°54'0 0.0 050 / 61013.8 7.1 -0.0
2017-Nov-08 07:00S 53°06' W 070°54'0 0.0 040 / 81013.6 7.4 -0.0
2017-Nov-08 06:00S 53°06' W 070°54'0 0.0 030 / 81013.6 8.1 -0.0
2017-Nov-08 05:00S 53°06' W 070°54'0 0.0 020 / 61013.7 8.3 -0.0
2017-Nov-08 04:00S 53°06' W 070°54'0 0.0 020 / 111013.7 8.8 -0.0
2017-Nov-08 03:00S 53°06' W 070°54'0 0.0 020 / 111013.6 9.5 -0.0
2017-Nov-08 02:00S 53°06' W 070°54'0 0.0 020 / 101013.5 9.9 -0.0
2017-Nov-08 01:00S 53°06' W 070°54'0 0.0 020 / 121013.3 10.8 -0.0
2017-Nov-08 00:00S 53°06' W 070°54'0 0.0 010 / 141012.5 12.1 -0.0
2017-Nov-07 23:00S 53°06' W 070°54'0 0.0 020 / 151012.1 14.7 -0.0
2017-Nov-07 22:00S 53°06' W 070°54'0 0.0 030 / 131012.1 14.9 -0.0
2017-Nov-07 21:00S 53°06' W 070°54'0 0.0 040 / 111011.9 13.2 -0.0
2017-Nov-07 20:00S 53°06' W 070°54'0 0.0 050 / 81012.0 10.9 -0.0
2017-Nov-07 19:00S 53°06' W 070°54'0 0.0 070 / 71012.6 9.9 -0.0
2017-Nov-07 18:00S 53°06' W 070°54'0 0.0 080 / 51013.1 9.5 -0.0
2017-Nov-07 17:00S 53°06' W 070°54'0 0.0 090 / 51013.4 9.3 -0.0
2017-Nov-07 16:00S 53°06' W 070°54'0 0.0 110 / 31013.8 10.1 -0.0
2017-Nov-07 15:00S 53°06' W 070°54'0 0.0 110 / 61014.0 9.3 -0.0
2017-Nov-07 14:00S 53°06' W 070°54'0 0.0 120 / 101013.8 9.7 -0.0
2017-Nov-07 13:00S 53°06' W 070°54'0 0.0 160 / 51014.0 11.2 -0.0
2017-Nov-07 12:00S 53°06' W 070°54'0 0.0 170 / 41014.1 10.7 -0.0
2017-Nov-07 11:00S 53°06' W 070°54'0 0.0 260 / 81014.0 10.1 -0.0
2017-Nov-07 10:00S 53°06' W 070°54'0 0.0 260 / 91013.6 8.9 -0.0
2017-Nov-07 09:00S 53°06' W 070°54'0 0.0 250 / 61013.1 8.5 -0.0
2017-Nov-07 08:00S 53°06' W 070°54'0 0.0 270 / 71012.7 8.9 -0.0
2017-Nov-07 07:00S 53°06' W 070°54'0 0.0 260 / 71012.2 10.0 -0.0
2017-Nov-07 06:00S 53°06' W 070°54'0 0.0 270 / 91011.8 9.7 -0.0
2017-Nov-07 05:00S 53°06' W 070°54'0 0.0 260 / 101011.5 10.6 -0.0
2017-Nov-07 04:00S 53°06' W 070°54'0 0.0 250 / 111011.2 11.9 -0.0
2017-Nov-07 03:00S 53°06' W 070°54'0 0.0 270 / 91010.7 13.0 -0.0
2017-Nov-07 02:00S 53°06' W 070°54'0 0.0 270 / 91010.2 13.6 -0.0
2017-Nov-07 01:00S 53°06' W 070°54'0 0.0 270 / 81009.8 14.5 -0.0
2017-Nov-07 00:00S 53°06' W 070°54'0 0.0 240 / 61009.2 14.9 -0.0
2017-Nov-06 23:00S 53°06' W 070°54'0 0.0 220 / 91008.4 15.5 -0.0
2017-Nov-06 22:00S 53°06' W 070°54'0 0.0 240 / 91007.8 15.2 -0.0
2017-Nov-06 21:00S 53°06' W 070°54'149148.9 200 / 41007.6 11.6 -0.0
2017-Nov-06 20:00S 51°12' W 068°18'149148.9 210 / 3971.1 9.6 -0.0
2017-Nov-06 19:00S 53°06' W 070°54'0 0.0 190 / 61007.8 9.2 -0.0
2017-Nov-06 18:00S 53°06' W 070°54'0 0.0 190 / 91008.5 8.8 -0.0
2017-Nov-06 17:00S 53°06' W 070°54'0 0.0 190 / 61009.3 8.5 -0.0
2017-Nov-06 16:00S 53°06' W 070°54'0 0.0 170 / 91010.1 8.6 -0.0
2017-Nov-06 15:00S 53°06' W 070°54'0 0.0 170 / 81010.9 8.6 -0.0
2017-Nov-06 14:00S 53°06' W 070°54'0 0.0 180 / 111011.3 8.1 -0.0
2017-Nov-06 13:00S 53°06' W 070°54'0 0.0 180 / 111012.2 9.2 -0.0
2017-Nov-06 12:00S 53°06' W 070°54'0 0.0 200 / 71012.9 11.1 -0.0
2017-Nov-06 11:00S 53°06' W 070°54'0 0.0 210 / 41013.3 9.4 -0.0
2017-Nov-06 10:00S 53°06' W 070°54'0 0.0 220 / 41013.5 7.4 -0.0
2017-Nov-06 09:00S 53°06' W 070°54'0 0.0 210 / 61013.6 7.0 -0.0
2017-Nov-06 08:00S 53°06' W 070°54'0 0.0 250 / 31014.0 6.9 -0.0
2017-Nov-06 07:00S 53°06' W 070°54'0 0.0 260 / 31014.4 6.8 -0.0
2017-Nov-06 06:00S 53°06' W 070°54'0 0.0 300 / 21014.8 8.2 -0.0
2017-Nov-06 05:00S 53°06' W 070°54'0 0.0 010 / 21015.2 9.4 -0.0
2017-Nov-06 04:00S 53°06' W 070°54'0 0.0 010 / 41015.4 10.1 -0.0
2017-Nov-06 03:00S 53°06' W 070°54'0 0.0 310 / 21015.6 10.0 -0.0
2017-Nov-06 02:00S 53°06' W 070°54'0 0.0 230 / 41015.8 9.9 -0.0
2017-Nov-06 01:00S 53°06' W 070°54'0 0.0 200 / 91015.9 10.1 -0.0
2017-Nov-06 00:00S 53°06' W 070°54'0 0.0 200 / 91015.7 9.9 -0.0
2017-Nov-05 23:00S 53°06' W 070°54'0 0.0 200 / 71015.6 10.3 -0.0
2017-Nov-05 22:00S 53°06' W 070°54'0 0.0 200 / 71015.8 10.2 -0.0
2017-Nov-05 21:00S 53°06' W 070°54'0 0.0 200 / 61015.9 10.5 -0.0
2017-Nov-05 20:00S 53°06' W 070°54'0 0.0 190 / 71016.1 10.2 -0.0
2017-Nov-05 19:00S 53°06' W 070°54'0 0.0 200 / 71016.5 10.2 -0.0
2017-Nov-05 18:00S 53°06' W 070°54'0 0.0 090 / 61016.7 8.7 -0.0
2017-Nov-05 17:00S 53°06' W 070°54'0 0.0 050 / 91016.8 8.2 -0.0
2017-Nov-05 16:00S 53°06' W 070°54'0 0.0 050 / 111017.1 7.7 -0.0
2017-Nov-05 15:00S 53°06' W 070°54'0 0.0 050 / 91017.4 7.3 -0.0
2017-Nov-05 14:00S 53°06' W 070°54'0 0.0 050 / 91017.6 7.0 -0.0
2017-Nov-05 13:00S 53°06' W 070°54'0 0.0 050 / 81017.9 7.0 -0.0
2017-Nov-05 12:00S 53°06' W 070°54'0 0.0 050 / 71017.8 7.3 -0.0
2017-Nov-05 11:00S 53°06' W 070°54'0 0.0 1017.5 7.6 -0.0
2017-Nov-05 10:00S 53°06' W 070°54'0 0.0 320 / 41017.1 6.5 -0.0
2017-Nov-05 09:00S 53°06' W 070°54'0 0.0 300 / 41016.9 5.1 -0.0
2017-Nov-05 08:00S 53°06' W 070°54'0 0.0 320 / 41016.5 5.1 -0.0
2017-Nov-05 07:00S 53°06' W 070°54'0 0.0 300 / 31016.1 5.3 -0.0
2017-Nov-05 06:00S 53°06' W 070°54'0 0.0 270 / 31015.8 5.5 -0.0
2017-Nov-05 05:00S 53°06' W 070°54'0 0.0 300 / 31015.9 6.2 -0.0
2017-Nov-05 04:00S 53°06' W 070°54'0 0.0 300 / 31015.6 6.7 -0.0
2017-Nov-05 03:00S 53°06' W 070°54'0 0.0 320 / 21015.4 7.5 -0.0
2017-Nov-05 02:00S 53°06' W 070°54'0 0.0 220 / 31015.2 8.0 -0.0
2017-Nov-05 01:00S 53°06' W 070°54'0 0.0 120 / 21015.0 7.9 -0.0
2017-Nov-05 00:00S 53°06' W 070°54'0 0.0 150 / 21014.7 8.8 -0.0
2017-Nov-04 23:00S 53°06' W 070°54'0 0.0 200 / 21014.4 9.4 -0.0
2017-Nov-04 22:00S 53°06' W 070°54'0 0.0 180 / 31014.1 8.9 -0.0
2017-Nov-04 21:00S 53°06' W 070°54'0 0.0 160 / 31013.7 8.5 -0.0
2017-Nov-04 20:00S 53°06' W 070°54'0 0.0 150 / 51013.3 8.0 -0.0
2017-Nov-04 19:00S 53°06' W 070°54'0 0.0 120 / 31013.1 8.3 -0.0
2017-Nov-04 18:00S 53°06' W 070°54'0 0.0 120 / 111012.6 8.1 -0.0
2017-Nov-04 17:00S 53°06' W 070°54'0 0.0 100 / 81012.5 8.4 -0.0
2017-Nov-04 16:00S 53°06' W 070°54'0 0.0 100 / 71012.6 8.7 -0.0
2017-Nov-04 15:00S 53°06' W 070°54'0 0.0 100 / 51012.4 8.7 -0.0
2017-Nov-04 14:00S 53°06' W 070°54'0 0.0 090 / 51012.5 8.4 -0.0
2017-Nov-04 13:00S 53°06' W 070°54'0 0.0 180 / 51012.5 9.1 -0.0
2017-Nov-04 12:00S 53°06' W 070°54'0 0.0 230 / 41012.4 8.6 -0.0
2017-Nov-04 11:00S 53°06' W 070°54'0 0.0 290 / 51012.0 8.2 -0.0
2017-Nov-04 10:00S 53°06' W 070°54'0 0.0 270 / 71011.7 6.6 -0.0
2017-Nov-04 09:00S 53°06' W 070°54'0 0.0 280 / 71011.3 6.6 -0.0
2017-Nov-04 08:00S 53°06' W 070°54'0 0.0 260 / 51010.4 7.0 -0.0
2017-Nov-04 07:00S 53°06' W 070°54'0 0.0 250 / 81009.8 7.1 -0.0
2017-Nov-04 06:00S 53°06' W 070°54'0 0.0 260 / 91009.4 7.0 -0.0
2017-Nov-04 05:00S 53°06' W 070°54'0 0.0 270 / 101008.8 7.5 -0.0
2017-Nov-04 04:00S 53°06' W 070°54'0 0.0 270 / 101008.7 7.4 -0.0
2017-Nov-04 03:00S 53°06' W 070°54'0 0.0 270 / 101008.2 7.8 -0.0
2017-Nov-04 02:00S 53°06' W 070°54'0 0.0 280 / 91007.7 8.2 -0.0
2017-Nov-04 01:00S 53°06' W 070°54'0 0.0 280 / 81007.3 8.4 -0.0
2017-Nov-04 00:00S 53°06' W 070°54'0 0.0 280 / 91006.6 9.2 -0.0
2017-Nov-03 23:00S 53°06' W 070°54'0 0.0 260 / 91006.0 10.2 -0.0
2017-Nov-03 22:00S 53°06' W 070°54'0 0.0 250 / 121005.3 10.6 -0.0
2017-Nov-03 21:00S 53°06' W 070°54'0 0.0 250 / 131004.6 10.8 -0.0
2017-Nov-03 20:00S 53°06' W 070°54'0 0.0 270 / 161004.1 11.3 -0.0
2017-Nov-03 19:00S 53°06' W 070°54'0 0.0 270 / 181003.7 11.6 -0.0
2017-Nov-03 18:00S 53°06' W 070°54'0 0.0 280 / 181003.3 11.3 -0.0
2017-Nov-03 17:00S 53°06' W 070°54'0 0.0 280 / 191003.3 10.3 -0.0
2017-Nov-03 16:00S 53°06' W 070°54'0 0.0 270 / 191003.2 10.1 -0.0
2017-Nov-03 15:00S 53°06' W 070°54'0 0.0 280 / 181003.1 9.6 -0.0
2017-Nov-03 14:00S 53°06' W 070°54'   290 / 151003.2 9.2 -0.0
Track history (hours):
 
Tides and Currents Weather Stations Pressure Air Temp Water Temp Dewpoint Dewpoint Depression Visibility Wind Speed Wind Dir Waves Ship Positions

Oceanographic research ship Nathaniel B. Palmer (USA)

Contact: Ethan Norris, ethan.norris.contractor@usap.gov

Detailed information on ship capabilities available from University of Delaware's Ocean Information Center and ARCUS's ALIAS (Arctic Logistics Information and Support) project.

Owner: OFFSHORE SERVICE VESSELS, GALLIANO, LA. More information available from US FCC via Universal Licensing System and Coast Guard Vessel Documentation Center.

Last reported at 2017-Nov-13 14:00 UTC. Time now 2017-Nov-18 10:06 UTC.
Position S 53°06' W 070°54'.

Type: Other ship. MMSI: 366610000.

Wind from 070 at 9 knots

Barometer 1006.3 mb
Air temperature 7.8 ° C
Water temperature -0.0 ° C

Date/timePositionNaut miles runAvg speedWind from/ knotsBaromVisibWave heightAir tempDewpointWater temp
2017-Nov-13 14:00S 53°06' W 070°54'0 0.0 070 / 91006.3 7.8 -0.0
2017-Nov-13 13:00S 53°06' W 070°54'0 0.0 100 / 41007.0 8.8 -0.0
2017-Nov-13 12:00S 53°06' W 070°54'0 0.0 260 / 51007.6 8.2 -0.0
2017-Nov-13 11:00S 53°06' W 070°54'0 0.0 290 / 71008.2 7.8 -0.0
2017-Nov-13 10:00S 53°06' W 070°54'0 0.0 280 / 61008.3 6.4 -0.0
2017-Nov-13 09:00S 53°06' W 070°54'0 0.0 260 / 31008.4 6.7 -0.0
2017-Nov-13 08:00S 53°06' W 070°54'0 0.0 220 / 61008.5 7.4 -0.0
2017-Nov-13 07:00S 53°06' W 070°54'0 0.0 220 / 121008.1 7.5 -0.0
2017-Nov-13 06:00S 53°06' W 070°54'0 0.0 260 / 81008.4 7.5 -0.0
2017-Nov-13 05:00S 53°06' W 070°54'0 0.0 220 / 81008.7 7.6 -0.0
2017-Nov-13 04:00S 53°06' W 070°54'0 0.0 180 / 61008.7 7.7 -0.0
2017-Nov-13 03:00S 53°06' W 070°54'0 0.0 210 / 41008.4 8.1 -0.0
2017-Nov-13 02:00S 53°06' W 070°54'0 0.0 260 / 111008.1 8.4 -0.0
2017-Nov-13 01:00S 53°06' W 070°54'0 0.0 250 / 111007.9 9.1 -0.0
2017-Nov-13 00:00S 53°06' W 070°54'0 0.0 260 / 121007.4 10.2 -0.0
2017-Nov-12 23:00S 53°06' W 070°54'0 0.0 260 / 111007.0 10.7 -0.0
2017-Nov-12 22:00S 53°06' W 070°54'0 0.0 250 / 131006.4 10.8 -0.0
2017-Nov-12 21:00S 53°06' W 070°54'0 0.0 260 / 161006.1 11.2 -0.0
2017-Nov-12 20:00S 53°06' W 070°54'0 0.0 260 / 151005.5 11.3 -0.0
2017-Nov-12 19:00S 53°06' W 070°54'0 0.0 260 / 131005.4 10.8 -0.0
2017-Nov-12 18:00S 53°06' W 070°54'0 0.0 050 / 71005.5 8.2 -0.0
2017-Nov-12 17:00S 53°06' W 070°54'0 0.0 090 / 61005.5 7.4 -0.0
2017-Nov-12 16:00S 53°06' W 070°54'0 0.0 100 / 71005.2 7.3 -0.0
2017-Nov-12 15:00S 53°06' W 070°54'0 0.0 230 / 91004.7 8.6 -0.0
2017-Nov-12 14:00S 53°06' W 070°54'0 0.0 250 / 71004.4 8.5 -0.0
2017-Nov-12 13:00S 53°06' W 070°54'0 0.0 160 / 111003.7 7.1 -0.0
2017-Nov-12 12:00S 53°06' W 070°54'0 0.0 210 / 81002.9 8.3 -0.0
2017-Nov-12 11:00S 53°06' W 070°54'0 0.0 220 / 71002.2 6.5 -0.0
2017-Nov-12 10:00S 53°06' W 070°54'0 0.0 220 / 71001.4 5.5 -0.0
2017-Nov-12 09:00S 53°06' W 070°54'0 0.0 240 / 41000.6 5.0 -0.0
2017-Nov-12 08:00S 53°06' W 070°54'0 0.0 240 / 5999.9 5.2 -0.0
2017-Nov-12 07:00S 53°06' W 070°54'0 0.0 230 / 8999.3 5.5 -0.0
2017-Nov-12 06:00S 53°06' W 070°54'0 0.0 220 / 7999.0 5.8 -0.0
2017-Nov-12 05:00S 53°06' W 070°54'0 0.0 220 / 5998.7 6.2 -0.0
2017-Nov-12 04:00S 53°06' W 070°54'0 0.0 220 / 4998.2 6.8 -0.0
2017-Nov-12 03:00S 53°06' W 070°54'0 0.0 220 / 5997.8 7.3 -0.0
2017-Nov-12 02:00S 53°06' W 070°54'0 0.0 190 / 6997.4 8.4 -0.0
2017-Nov-12 01:00S 53°06' W 070°54'0 0.0 220 / 8996.8 8.7 -0.0
2017-Nov-12 00:00S 53°06' W 070°54'0 0.0 220 / 13996.3 9.4 -0.0
2017-Nov-11 23:00S 53°06' W 070°54'0 0.0 230 / 8995.9 10.1 -0.0
2017-Nov-11 22:00S 53°06' W 070°54'0 0.0 080 / 3995.8 8.4 -0.0
2017-Nov-11 21:00S 53°06' W 070°54'0 0.0 100 / 7995.3 8.8 -0.0
2017-Nov-11 20:00S 53°06' W 070°54'0 0.0 200 / 10994.8 10.7 -0.0
2017-Nov-11 19:00S 53°06' W 070°54'0 0.0 050 / 3995.0 8.7 -0.0
2017-Nov-11 18:00S 53°06' W 070°54'0 0.0 140 / 8994.9 9.1 -0.0
2017-Nov-11 17:00S 53°06' W 070°54'0 0.0 060 / 3995.0 9.2 -0.0
2017-Nov-11 16:00S 53°06' W 070°54'0 0.0 340 / 1995.2 9.1 -0.0
2017-Nov-11 15:00S 53°06' W 070°54'0 0.0 020 / 2995.2 8.0 -0.0
2017-Nov-11 14:00S 53°06' W 070°54'0 0.0 080 / 2995.5 7.9 -0.0
2017-Nov-11 13:00S 53°06' W 070°54'0 0.0 170 / 1995.8 8.3 -0.0
2017-Nov-11 12:00S 53°06' W 070°54'0 0.0 010 / 2996.2 7.9 -0.0
2017-Nov-11 11:00S 53°06' W 070°54'0 0.0 020 / 4996.9 7.7 -0.0
2017-Nov-11 10:00S 53°06' W 070°54'0 0.0 997.4 7.9 -0.0
2017-Nov-11 09:00S 53°06' W 070°54'0 0.0 020 / 5998.2 7.7 -0.0
2017-Nov-11 08:00S 53°06' W 070°54'0 0.0 010 / 6999.0 8.0 -0.0
2017-Nov-11 07:00S 53°06' W 070°54'0 0.0 020 / 8999.5 8.1 -0.0
2017-Nov-11 06:00S 53°06' W 070°54'0 0.0 010 / 81000.4 8.6 -0.0
2017-Nov-11 05:00S 53°06' W 070°54'0 0.0 010 / 71001.5 9.0 -0.0
2017-Nov-11 04:00S 53°06' W 070°54'0 0.0 020 / 71002.3 9.8 -0.0
2017-Nov-11 03:00S 53°06' W 070°54'0 0.0 050 / 81002.7 10.1 -0.0
2017-Nov-11 02:00S 53°06' W 070°54'0 0.0 060 / 41003.3 10.6 -0.0
2017-Nov-11 01:00S 53°06' W 070°54'0 0.0 330 / 121002.9 10.9 -0.0
2017-Nov-11 00:00S 53°06' W 070°54'0 0.0 290 / 261002.2 11.5 -0.0
2017-Nov-10 23:00S 53°06' W 070°54'0 0.0 290 / 191003.0 12.3 -0.0
2017-Nov-10 22:00S 53°06' W 070°54'0 0.0 310 / 161003.6 12.9 -0.0
2017-Nov-10 21:00S 53°06' W 070°54'0 0.0 320 / 141004.2 12.7 -0.0
2017-Nov-10 20:00S 53°06' W 070°54'0 0.0 330 / 121005.0 11.7 -0.0
2017-Nov-10 19:00S 53°06' W 070°54'0 0.0 340 / 131005.9 10.6 -0.0
2017-Nov-10 18:00S 53°06' W 070°54'0 0.0 340 / 91006.6 10.4 -0.0
2017-Nov-10 17:00S 53°06' W 070°54'0 0.0 330 / 111007.4 11.0 -0.0
2017-Nov-10 16:00S 53°06' W 070°54'0 0.0 320 / 111008.1 10.8 -0.0
2017-Nov-10 15:00S 53°06' W 070°54'0 0.0 310 / 101008.5 10.8 -0.0
2017-Nov-10 14:00S 53°06' W 070°54'0 0.0 290 / 101008.8 10.2 -0.0
2017-Nov-10 13:00S 53°06' W 070°54'0 0.0 280 / 131009.4 9.2 -0.0
2017-Nov-10 12:00S 53°06' W 070°54'0 0.0 290 / 151009.4 8.9 -0.0
2017-Nov-10 11:00S 53°06' W 070°54'0 0.0 290 / 171009.1 8.5 -0.0
2017-Nov-10 10:00S 53°06' W 070°54'0 0.0 260 / 141008.8 7.9 -0.0
2017-Nov-10 09:00S 53°06' W 070°54'0 0.0 260 / 111008.7 7.5 -0.0
2017-Nov-10 08:00S 53°06' W 070°54'0 0.0 260 / 101008.3 7.5 -0.0
2017-Nov-10 07:00S 53°06' W 070°54'0 0.0 260 / 101007.9 8.4 -0.0
2017-Nov-10 06:00S 53°06' W 070°54'0 0.0 240 / 91007.4 8.7 -0.0
2017-Nov-10 05:00S 53°06' W 070°54'0 0.0 250 / 101006.5 9.2 -0.0
2017-Nov-10 04:00S 53°06' W 070°54'0 0.0 330 / 51006.1 8.2 -0.0
2017-Nov-10 03:00S 53°06' W 070°54'0 0.0 010 / 41006.0 7.6 -0.0
2017-Nov-10 02:00S 53°06' W 070°54'0 0.0 050 / 51005.8 7.5 -0.0
2017-Nov-10 01:00S 53°06' W 070°54'0 0.0 020 / 41005.7 8.0 -0.0
2017-Nov-10 00:00S 53°06' W 070°54'0 0.0 040 / 61005.1 8.4 -0.0
2017-Nov-09 23:00S 53°06' W 070°54'0 0.0 030 / 21005.0 9.1 -0.0
2017-Nov-09 22:00S 53°06' W 070°54'0 0.0 180 / 41004.6 9.5 -0.0
2017-Nov-09 21:00S 53°06' W 070°54'0 0.0 180 / 61005.1 10.2 -0.0
2017-Nov-09 20:00S 53°06' W 070°54'0 0.0 180 / 51005.8 10.1 -0.0
2017-Nov-09 19:00S 53°06' W 070°54'0 0.0 150 / 51006.5 9.8 -0.0
2017-Nov-09 18:00S 53°06' W 070°54'0 0.0 070 / 41007.2 9.1 -0.0
2017-Nov-09 17:00S 53°06' W 070°54'0 0.0 050 / 71007.9 8.7 -0.0
2017-Nov-09 16:00S 53°06' W 070°54'0 0.0 060 / 71008.8 7.8 -0.0
2017-Nov-09 15:00S 53°06' W 070°54'0 0.0 060 / 91009.5 7.4 -0.0
2017-Nov-09 14:00S 53°06' W 070°54'0 0.0 060 / 101010.1 7.3 -0.0
2017-Nov-09 13:00S 53°06' W 070°54'0 0.0 050 / 91010.6 7.1 -0.0
2017-Nov-09 12:00S 53°06' W 070°54'0 0.0 050 / 81010.9 6.9 -0.0
2017-Nov-09 11:00S 53°06' W 070°54'0 0.0 060 / 91011.0 6.9 -0.0
2017-Nov-09 10:00S 53°06' W 070°54'0 0.0 040 / 81011.2 6.6 -0.0
2017-Nov-09 09:00S 53°06' W 070°54'0 0.0 040 / 91011.4 6.5 -0.0
2017-Nov-09 08:00S 53°06' W 070°54'0 0.0 030 / 81011.7 6.5 -0.0
2017-Nov-09 07:00S 53°06' W 070°54'0 0.0 030 / 101011.9 6.8 -0.0
2017-Nov-09 06:00S 53°06' W 070°54'0 0.0 020 / 121012.1 7.4 -0.0
2017-Nov-09 05:00S 53°06' W 070°54'0 0.0 020 / 91012.6 7.9 -0.0
2017-Nov-09 04:00S 53°06' W 070°54'0 0.0 020 / 81012.9 8.4 -0.0
2017-Nov-09 03:00S 53°06' W 070°54'0 0.0 010 / 91013.0 9.1 -0.0
2017-Nov-09 02:00S 53°06' W 070°54'0 0.0 010 / 71013.0 10.0 -0.0
2017-Nov-09 01:00S 53°06' W 070°54'0 0.0 020 / 71012.9 10.9 -0.0
2017-Nov-09 00:00S 53°06' W 070°54'0 0.0 020 / 71012.8 11.7 -0.0
2017-Nov-08 23:00S 53°06' W 070°54'0 0.0 020 / 51012.6 10.7 -0.0
2017-Nov-08 22:00S 53°06' W 070°54'0 0.0 140 / 21012.6 9.3 -0.0
2017-Nov-08 21:00S 53°06' W 070°54'0 0.0 090 / 41012.7 9.9 -0.0
2017-Nov-08 20:00S 53°06' W 070°54'0 0.0 060 / 81012.7 10.8 -0.0
2017-Nov-08 19:00S 53°06' W 070°54'0 0.0 040 / 111012.9 10.7 -0.0
2017-Nov-08 18:00S 53°06' W 070°54'0 0.0 050 / 101013.2 9.2 -0.0
2017-Nov-08 17:00S 53°06' W 070°54'0 0.0 050 / 91013.5 8.0 -0.0
2017-Nov-08 16:00S 53°06' W 070°54'0 0.0 060 / 71013.7 7.8 -0.0
2017-Nov-08 15:00S 53°06' W 070°54'0 0.0 050 / 71014.0 7.2 -0.0
2017-Nov-08 14:00S 53°06' W 070°54'0 0.0 040 / 81014.2 7.1 -0.0
2017-Nov-08 13:00S 53°06' W 070°54'0 0.0 050 / 71014.4 6.9 -0.0
2017-Nov-08 12:00S 53°06' W 070°54'0 0.0 040 / 51014.4 7.1 -0.0
2017-Nov-08 11:00S 53°06' W 070°54'0 0.0 040 / 41014.3 7.0 -0.0
2017-Nov-08 10:00S 53°06' W 070°54'0 0.0 050 / 61014.2 7.0 -0.0
2017-Nov-08 09:00S 53°06' W 070°54'0 0.0 050 / 61014.0 7.1 -0.0
2017-Nov-08 08:00S 53°06' W 070°54'0 0.0 050 / 61013.8 7.1 -0.0
2017-Nov-08 07:00S 53°06' W 070°54'0 0.0 040 / 81013.6 7.4 -0.0
2017-Nov-08 06:00S 53°06' W 070°54'0 0.0 030 / 81013.6 8.1 -0.0
2017-Nov-08 05:00S 53°06' W 070°54'0 0.0 020 / 61013.7 8.3 -0.0
2017-Nov-08 04:00S 53°06' W 070°54'0 0.0 020 / 111013.7 8.8 -0.0
2017-Nov-08 03:00S 53°06' W 070°54'0 0.0 020 / 111013.6 9.5 -0.0
2017-Nov-08 02:00S 53°06' W 070°54'0 0.0 020 / 101013.5 9.9 -0.0
2017-Nov-08 01:00S 53°06' W 070°54'0 0.0 020 / 121013.3 10.8 -0.0
2017-Nov-08 00:00S 53°06' W 070°54'0 0.0 010 / 141012.5 12.1 -0.0
2017-Nov-07 23:00S 53°06' W 070°54'0 0.0 020 / 151012.1 14.7 -0.0
2017-Nov-07 22:00S 53°06' W 070°54'0 0.0 030 / 131012.1 14.9 -0.0
2017-Nov-07 21:00S 53°06' W 070°54'0 0.0 040 / 111011.9 13.2 -0.0
2017-Nov-07 20:00S 53°06' W 070°54'0 0.0 050 / 81012.0 10.9 -0.0
2017-Nov-07 19:00S 53°06' W 070°54'0 0.0 070 / 71012.6 9.9 -0.0
2017-Nov-07 18:00S 53°06' W 070°54'0 0.0 080 / 51013.1 9.5 -0.0
2017-Nov-07 17:00S 53°06' W 070°54'0 0.0 090 / 51013.4 9.3 -0.0
2017-Nov-07 16:00S 53°06' W 070°54'0 0.0 110 / 31013.8 10.1 -0.0
2017-Nov-07 15:00S 53°06' W 070°54'0 0.0 110 / 61014.0 9.3 -0.0
2017-Nov-07 14:00S 53°06' W 070°54'0 0.0 120 / 101013.8 9.7 -0.0
2017-Nov-07 13:00S 53°06' W 070°54'0 0.0 160 / 51014.0 11.2 -0.0
2017-Nov-07 12:00S 53°06' W 070°54'0 0.0 170 / 41014.1 10.7 -0.0
2017-Nov-07 11:00S 53°06' W 070°54'0 0.0 260 / 81014.0 10.1 -0.0
2017-Nov-07 10:00S 53°06' W 070°54'0 0.0 260 / 91013.6 8.9 -0.0
2017-Nov-07 09:00S 53°06' W 070°54'0 0.0 250 / 61013.1 8.5 -0.0
2017-Nov-07 08:00S 53°06' W 070°54'0 0.0 270 / 71012.7 8.9 -0.0
2017-Nov-07 07:00S 53°06' W 070°54'0 0.0 260 / 71012.2 10.0 -0.0
2017-Nov-07 06:00S 53°06' W 070°54'0 0.0 270 / 91011.8 9.7 -0.0
2017-Nov-07 05:00S 53°06' W 070°54'0 0.0 260 / 101011.5 10.6 -0.0
2017-Nov-07 04:00S 53°06' W 070°54'0 0.0 250 / 111011.2 11.9 -0.0
2017-Nov-07 03:00S 53°06' W 070°54'0 0.0 270 / 91010.7 13.0 -0.0
2017-Nov-07 02:00S 53°06' W 070°54'0 0.0 270 / 91010.2 13.6 -0.0
2017-Nov-07 01:00S 53°06' W 070°54'0 0.0 270 / 81009.8 14.5 -0.0
2017-Nov-07 00:00S 53°06' W 070°54'0 0.0 240 / 61009.2 14.9 -0.0
2017-Nov-06 23:00S 53°06' W 070°54'0 0.0 220 / 91008.4 15.5 -0.0
2017-Nov-06 22:00S 53°06' W 070°54'0 0.0 240 / 91007.8 15.2 -0.0
2017-Nov-06 21:00S 53°06' W 070°54'149148.9 200 / 41007.6 11.6 -0.0
2017-Nov-06 20:00S 51°12' W 068°18'149148.9 210 / 3971.1 9.6 -0.0
2017-Nov-06 19:00S 53°06' W 070°54'0 0.0 190 / 61007.8 9.2 -0.0
2017-Nov-06 18:00S 53°06' W 070°54'0 0.0 190 / 91008.5 8.8 -0.0
2017-Nov-06 17:00S 53°06' W 070°54'0 0.0 190 / 61009.3 8.5 -0.0
2017-Nov-06 16:00S 53°06' W 070°54'0 0.0 170 / 91010.1 8.6 -0.0
2017-Nov-06 15:00S 53°06' W 070°54'0 0.0 170 / 81010.9 8.6 -0.0
2017-Nov-06 14:00S 53°06' W 070°54'0 0.0 180 / 111011.3 8.1 -0.0
2017-Nov-06 13:00S 53°06' W 070°54'0 0.0 180 / 111012.2 9.2 -0.0
2017-Nov-06 12:00S 53°06' W 070°54'0 0.0 200 / 71012.9 11.1 -0.0
2017-Nov-06 11:00S 53°06' W 070°54'0 0.0 210 / 41013.3 9.4 -0.0
2017-Nov-06 10:00S 53°06' W 070°54'0 0.0 220 / 41013.5 7.4 -0.0
2017-Nov-06 09:00S 53°06' W 070°54'0 0.0 210 / 61013.6 7.0 -0.0
2017-Nov-06 08:00S 53°06' W 070°54'0 0.0 250 / 31014.0 6.9 -0.0
2017-Nov-06 07:00S 53°06' W 070°54'0 0.0 260 / 31014.4 6.8 -0.0
2017-Nov-06 06:00S 53°06' W 070°54'0 0.0 300 / 21014.8 8.2 -0.0
2017-Nov-06 05:00S 53°06' W 070°54'0 0.0 010 / 21015.2 9.4 -0.0
2017-Nov-06 04:00S 53°06' W 070°54'0 0.0 010 / 41015.4 10.1 -0.0
2017-Nov-06 03:00S 53°06' W 070°54'0 0.0 310 / 21015.6 10.0 -0.0
2017-Nov-06 02:00S 53°06' W 070°54'0 0.0 230 / 41015.8 9.9 -0.0
2017-Nov-06 01:00S 53°06' W 070°54'0 0.0 200 / 91015.9 10.1 -0.0
2017-Nov-06 00:00S 53°06' W 070°54'0 0.0 200 / 91015.7 9.9 -0.0
2017-Nov-05 23:00S 53°06' W 070°54'0 0.0 200 / 71015.6 10.3 -0.0
2017-Nov-05 22:00S 53°06' W 070°54'0 0.0 200 / 71015.8 10.2 -0.0
2017-Nov-05 21:00S 53°06' W 070°54'0 0.0 200 / 61015.9 10.5 -0.0
2017-Nov-05 20:00S 53°06' W 070°54'0 0.0 190 / 71016.1 10.2 -0.0
2017-Nov-05 19:00S 53°06' W 070°54'0 0.0 200 / 71016.5 10.2 -0.0
2017-Nov-05 18:00S 53°06' W 070°54'0 0.0 090 / 61016.7 8.7 -0.0
2017-Nov-05 17:00S 53°06' W 070°54'0 0.0 050 / 91016.8 8.2 -0.0
2017-Nov-05 16:00S 53°06' W 070°54'0 0.0 050 / 111017.1 7.7 -0.0
2017-Nov-05 15:00S 53°06' W 070°54'0 0.0 050 / 91017.4 7.3 -0.0
2017-Nov-05 14:00S 53°06' W 070°54'0 0.0 050 / 91017.6 7.0 -0.0
2017-Nov-05 13:00S 53°06' W 070°54'0 0.0 050 / 81017.9 7.0 -0.0
2017-Nov-05 12:00S 53°06' W 070°54'0 0.0 050 / 71017.8 7.3 -0.0
2017-Nov-05 11:00S 53°06' W 070°54'0 0.0 1017.5 7.6 -0.0
2017-Nov-05 10:00S 53°06' W 070°54'0 0.0 320 / 41017.1 6.5 -0.0
2017-Nov-05 09:00S 53°06' W 070°54'0 0.0 300 / 41016.9 5.1 -0.0
2017-Nov-05 08:00S 53°06' W 070°54'0 0.0 320 / 41016.5 5.1 -0.0
2017-Nov-05 07:00S 53°06' W 070°54'0 0.0 300 / 31016.1 5.3 -0.0
2017-Nov-05 06:00S 53°06' W 070°54'0 0.0 270 / 31015.8 5.5 -0.0
2017-Nov-05 05:00S 53°06' W 070°54'0 0.0 300 / 31015.9 6.2 -0.0
2017-Nov-05 04:00S 53°06' W 070°54'0 0.0 300 / 31015.6 6.7 -0.0
2017-Nov-05 03:00S 53°06' W 070°54'0 0.0 320 / 21015.4 7.5 -0.0
2017-Nov-05 02:00S 53°06' W 070°54'0 0.0 220 / 31015.2 8.0 -0.0
2017-Nov-05 01:00S 53°06' W 070°54'0 0.0 120 / 21015.0 7.9 -0.0
2017-Nov-05 00:00S 53°06' W 070°54'0 0.0 150 / 21014.7 8.8 -0.0
2017-Nov-04 23:00S 53°06' W 070°54'0 0.0 200 / 21014.4 9.4 -0.0
2017-Nov-04 22:00S 53°06' W 070°54'0 0.0 180 / 31014.1 8.9 -0.0
2017-Nov-04 21:00S 53°06' W 070°54'0 0.0 160 / 31013.7 8.5 -0.0
2017-Nov-04 20:00S 53°06' W 070°54'0 0.0 150 / 51013.3 8.0 -0.0
2017-Nov-04 19:00S 53°06' W 070°54'0 0.0 120 / 31013.1 8.3 -0.0
2017-Nov-04 18:00S 53°06' W 070°54'0 0.0 120 / 111012.6 8.1 -0.0
2017-Nov-04 17:00S 53°06' W 070°54'0 0.0 100 / 81012.5 8.4 -0.0
2017-Nov-04 16:00S 53°06' W 070°54'0 0.0 100 / 71012.6 8.7 -0.0
2017-Nov-04 15:00S 53°06' W 070°54'0 0.0 100 / 51012.4 8.7 -0.0
2017-Nov-04 14:00S 53°06' W 070°54'0 0.0 090 / 51012.5 8.4 -0.0
2017-Nov-04 13:00S 53°06' W 070°54'0 0.0 180 / 51012.5 9.1 -0.0
2017-Nov-04 12:00S 53°06' W 070°54'0 0.0 230 / 41012.4 8.6 -0.0
2017-Nov-04 11:00S 53°06' W 070°54'0 0.0 290 / 51012.0 8.2 -0.0
2017-Nov-04 10:00S 53°06' W 070°54'0 0.0 270 / 71011.7 6.6 -0.0
2017-Nov-04 09:00S 53°06' W 070°54'0 0.0 280 / 71011.3 6.6 -0.0
2017-Nov-04 08:00S 53°06' W 070°54'0 0.0 260 / 51010.4 7.0 -0.0
2017-Nov-04 07:00S 53°06' W 070°54'0 0.0 250 / 81009.8 7.1 -0.0
2017-Nov-04 06:00S 53°06' W 070°54'0 0.0 260 / 91009.4 7.0 -0.0
2017-Nov-04 05:00S 53°06' W 070°54'0 0.0 270 / 101008.8 7.5 -0.0
2017-Nov-04 04:00S 53°06' W 070°54'0 0.0 270 / 101008.7 7.4 -0.0
2017-Nov-04 03:00S 53°06' W 070°54'0 0.0 270 / 101008.2 7.8 -0.0
2017-Nov-04 02:00S 53°06' W 070°54'0 0.0 280 / 91007.7 8.2 -0.0
2017-Nov-04 01:00S 53°06' W 070°54'0 0.0 280 / 81007.3 8.4 -0.0
2017-Nov-04 00:00S 53°06' W 070°54'0 0.0 280 / 91006.6 9.2 -0.0
2017-Nov-03 23:00S 53°06' W 070°54'0 0.0 260 / 91006.0 10.2 -0.0
2017-Nov-03 22:00S 53°06' W 070°54'0 0.0 250 / 121005.3 10.6 -0.0
2017-Nov-03 21:00S 53°06' W 070°54'0 0.0 250 / 131004.6 10.8 -0.0
2017-Nov-03 20:00S 53°06' W 070°54'0 0.0 270 / 161004.1 11.3 -0.0
2017-Nov-03 19:00S 53°06' W 070°54'0 0.0 270 / 181003.7 11.6 -0.0
2017-Nov-03 18:00S 53°06' W 070°54'0 0.0 280 / 181003.3 11.3 -0.0
2017-Nov-03 17:00S 53°06' W 070°54'0 0.0 280 / 191003.3 10.3 -0.0
2017-Nov-03 16:00S 53°06' W 070°54'0 0.0 270 / 191003.2 10.1 -0.0
2017-Nov-03 15:00S 53°06' W 070°54'0 0.0 280 / 181003.1 9.6 -0.0
2017-Nov-03 14:00S 53°06' W 070°54'   290 / 151003.2 9.2 -0.0

Dump ship's entire track history